Location: Lancaster
(34.6980°N, 118.1360°W)
Time: 18:47:42
(UTC-08:00)

OTV 5 (USA 277) - Pass Details

Date: 11 November 2017
Orbit: 404 x 417 km, 43.0° (Epoch: 07 September)

Event Time Altitude Azimuth Distance (km) Brightness Sun altitude
Exits shadow 04:39:04 28° 23° (NNE) 793 ? -21.5°
Drops below altitude 10° 04:41:03 10° 49° (NE) 1,455 ? -21.1°
Sets 04:43:14 0° 58° (ENE) 2,316 ? -20.6°
